Time,TemperatureF,DewpointF,PressureIn,WindDirection,WindDirectionDegrees,WindSpeedMPH,WindSpeedGustMPH,Humidity,HourlyPrecipIn,Conditions,Clouds,dailyrainin,SolarRadiationWatts/m^2,SoftwareType,DateUTC
2013-10-06 00:42:00,56.0,12.0,30.31,NNW,346,8.0,15.0,17,-99.99,,,-99.99,0.000000,,2013-10-06 06:42:00,
2013-10-06 01:11:00,56.0,13.0,30.31,NW,319,6.0,13.0,17,-99.99,,,-99.99,0.000000,,2013-10-06 07:11:00,
2013-10-06 01:42:00,56.0,13.0,30.31,NNW,348,7.0,9.0,17,-99.99,,,-99.99,0.000000,,2013-10-06 07:42:00,
2013-10-06 02:11:00,55.0,13.0,30.31,ESE,121,2.0,5.0,18,-99.99,,,-99.99,0.000000,,2013-10-06 08:11:00,
2013-10-06 02:22:00,55.0,13.0,30.32,NNE,16,2.0,6.0,18,-99.99,,,-99.99,0.000000,,2013-10-06 08:22:00,
2013-10-06 02:42:00,56.0,12.0,30.32,NW,313,4.0,9.0,17,-99.99,,,-99.99,0.000000,,2013-10-06 08:42:00,
2013-10-06 02:53:00,54.0,13.0,30.31,NE,50,5.0,10.0,18,-99.99,,,-99.99,0.000000,,2013-10-06 08:53:00,
2013-10-06 03:01:00,54.0,13.0,30.31,NE,50,5.0,10.0,18,-99.99,,,-99.99,0.000000,,2013-10-06 09:01:00,
2013-10-06 03:43:00,53.0,12.0,30.31,East,92,5.0,7.0,19,-99.99,,,-99.99,0.000000,,2013-10-06 09:43:00,
2013-10-06 04:13:00,53.0,12.0,30.31,East,91,3.0,5.0,19,-99.99,,,-99.99,0.000000,,2013-10-06 10:13:00,
2013-10-06 04:43:00,54.0,12.0,30.30,NNW,335,6.0,7.0,18,-99.99,,,-99.99,0.000000,,2013-10-06 10:43:00,
2013-10-06 05:42:00,54.0,12.0,30.31,East,93,4.0,7.0,18,-99.99,,,-99.99,0.000000,,2013-10-06 11:42:00,
2013-10-06 05:52:00,53.0,12.0,30.31,SE,127,4.0,6.0,19,-99.99,,,-99.99,0.000000,,2013-10-06 11:52:00,
2013-10-06 06:02:00,53.0,12.0,30.31,SE,127,4.0,6.0,19,-99.99,,,-99.99,0.000000,,2013-10-06 12:02:00,
2013-10-06 06:42:00,51.0,13.0,30.32,East,100,6.0,7.0,21,-99.99,,,-99.99,0.000000,,2013-10-06 12:42:00,
2013-10-06 07:11:00,50.0,14.0,30.32,ENE,67,6.0,8.0,22,-99.99,,,-99.99,0.000000,,2013-10-06 13:11:00,
2013-10-06 07:42:00,50.0,14.0,30.33,ESE,102,8.0,10.0,23,-99.99,,,-99.99,7.670000,,2013-10-06 13:42:00,
2013-10-06 09:43:00,56.0,17.0,30.36,East,100,10.0,13.0,21,-99.99,,,-99.99,367.489990,,2013-10-06 15:43:00,
2013-10-06 10:42:00,56.0,18.0,30.37,East,90,13.0,18.0,22,-99.99,,,-99.99,534.849976,,2013-10-06 16:42:00,
2013-10-06 11:12:00,56.0,20.0,30.37,East,95,13.0,17.0,24,-99.99,,,-99.99,603.190002,,2013-10-06 17:12:00,
2013-10-06 11:42:00,56.0,20.0,30.38,East,92,12.0,17.0,24,-99.99,,,-99.99,661.770020,,2013-10-06 17:42:00,
2013-10-06 12:12:00,58.0,19.0,30.38,East,94,10.0,16.0,21,-99.99,,,-99.99,705.000000,,2013-10-06 18:12:00,
2013-10-06 12:42:00,61.0,19.0,30.37,ESE,103,9.0,15.0,20,-99.99,,,-99.99,733.590027,,2013-10-06 18:42:00,
2013-10-06 13:42:00,61.0,19.0,30.35,ENE,72,9.0,17.0,19,-99.99,,,-99.99,744.049988,,2013-10-06 19:42:00,
2013-10-06 14:11:00,63.0,19.0,30.34,ENE,64,9.0,14.0,18,-99.99,,,-99.99,728.020020,,2013-10-06 20:11:00,
2013-10-06 14:42:00,63.0,18.0,30.33,East,81,8.0,14.0,17,-99.99,,,-99.99,679.200012,,2013-10-06 20:42:00,
2013-10-06 15:11:00,63.0,19.0,30.32,ESE,107,9.0,14.0,17,-99.99,,,-99.99,648.520020,,2013-10-06 21:11:00,
2013-10-06 15:44:00,64.0,20.0,30.31,ENE,68,9.0,14.0,17,-99.99,,,-99.99,581.580017,,2013-10-06 21:44:00,
2013-10-06 16:13:00,64.0,19.0,30.31,East,79,10.0,16.0,17,-99.99,,,-99.99,522.299988,,2013-10-06 22:13:00,
2013-10-06 16:42:00,65.0,20.0,30.30,ESE,109,7.0,13.0,17,-99.99,,,-99.99,444.899994,,2013-10-06 22:42:00,
2013-10-06 17:12:00,65.0,19.0,30.30,East,88,7.0,13.0,17,-99.99,,,-99.99,356.339996,,2013-10-06 23:12:00,
2013-10-06 17:42:00,64.0,19.0,30.30,East,97,7.0,10.0,17,-99.99,,,-99.99,263.589996,,2013-10-06 23:42:00,
2013-10-06 18:12:00,63.0,20.0,30.30,ESE,119,8.0,12.0,19,-99.99,,,-99.99,98.320000,,2013-10-07 00:12:00,
2013-10-06 18:22:00,62.0,20.0,30.31,ESE,110,7.0,9.0,19,-99.99,,,-99.99,127.610001,,2013-10-07 00:22:00,
2013-10-06 18:32:00,62.0,20.0,30.31,ESE,110,7.0,9.0,19,-99.99,,,-99.99,127.610001,,2013-10-07 00:32:00,
2013-10-06 18:42:00,62.0,20.0,30.31,ESE,110,7.0,9.0,19,-99.99,,,-99.99,127.610001,,2013-10-07 00:42:00,
2013-10-06 18:52:00,61.0,20.0,30.31,ESE,104,7.0,8.0,20,-99.99,,,-99.99,26.500000,,2013-10-07 00:52:00,
2013-10-06 19:11:00,61.0,20.0,30.31,East,79,8.0,9.0,20,-99.99,,,-99.99,6.970000,,2013-10-07 01:11:00,
2013-10-06 19:42:00,60.0,21.0,30.31,ENE,77,8.0,9.0,21,-99.99,,,-99.99,0.000000,,2013-10-07 01:42:00,
2013-10-06 21:44:00,59.0,19.0,-100.00,East,83,9.0,11.0,21,-99.99,,,-99.99,0.000000,,2013-10-07 03:44:00,
2013-10-06 22:13:00,59.0,19.0,30.33,East,90,9.0,11.0,21,-99.99,,,-99.99,0.000000,,2013-10-07 04:13:00,
2013-10-06 22:53:00,59.0,18.0,30.33,ENE,69,10.0,12.0,19,-99.99,,,-99.99,0.000000,,2013-10-07 04:53:00,
2013-10-06 23:03:00,59.0,18.0,30.33,ENE,69,10.0,12.0,19,-99.99,,,-99.99,0.000000,,2013-10-07 05:03:00,
2013-10-06 23:43:00,60.0,18.0,30.33,ENE,74,11.0,12.0,19,-99.99,,,-99.99,0.000000,,2013-10-07 05:43:00,